[[{"header":{"parameterUnit":"m.s-1","parameterCategory":1,"la1":30.2991,"la2":30.254,"lo1":-89.0895,"lo2":-89.0444,"dy":0.0017,"dx":0.0017,"nx":28,"ny":28,"refTime":"2025-08-23T03:00:00:Z","depth":0,"parameterNumber":2,"parameterNumberName":"U-component_of_WINDS"},"data":[0,0,0,0,0,0,0,0,0,0,0,0,0,0,0,0,0,0,0,0,0,0,0,0,0,0,0,0,0,0,0,0,0,0,0,0,0,0,0,0,0,0,0,0,0,0,0,0,0,0,0,0,0,0,0,0,0,0,2.2344,2.2345,0,2.2441,2.2442,2.2443,2.2439,2.2437,2.2436,2.2435,2.2535,2.2539,2.2542,0,0,0,0,0,0,0,0,0,0,0,0,0,2.2155,2.2158,2.2344,2.2345,2.2346,2.2441,2.2442,2.2443,2.2439,2.2437,2.2436,2.2434,2.2533,2.2538,2.2543,0,0,0,0,0,0,0,0,0,0,0,0,0,2.2243,2.2159,2.2344,2.2355,2.2357,2.244,2.2442,2.2444,2.2439,2.2437,2.2435,2.2433,2.2532,2.2538,2.2543,2.2621,0,0,2.2561,2.2564,0,0,0,0,0,0,0,0,2.2238,2.225,2.2353,2.2355,2.2357,2.2425,2.2412,2.2503,2.244,2.2408,2.2435,2.2432,2.25,2.2508,2.2531,2.2626,2.263,2.2562,2.2566,2.2568,2.257,0,0,0,0,0,0,0,2.2232,2.2245,2.2382,2.2354,2.2357,2.2356,2.2366,2.2429,2.2465,2.2411,2.2411,2.2422,2.2501,2.2525,2.2533,2.2632,2.2562,2.2567,2.2571,2.2573,2.2792,2.2794,0,0,0,0,0,0,2.2223,2.224,2.2379,2.2385,2.2291,2.2361,2.2372,2.2406,2.2464,2.2471,2.2424,2.2422,2.2516,2.2527,2.2537,2.2629,2.2568,2.2574,2.2577,2.279,2.2792,2.2795,0,0,0,0,0,0,2.2219,2.2235,2.2375,2.2313,2.233,2.2366,2.2404,2.2409,2.2433,2.2474,2.248,2.2442,2.2515,2.2529,2.2599,2.2633,2.2576,2.2582,2.2787,2.279,2.2794,2.2816,0,0,0,0,0,0,2.2213,2.2234,2.2264,2.2313,2.2334,2.2436,2.2406,2.2412,2.2443,2.2441,2.2493,2.2499,2.2515,2.2591,2.2605,2.264,2.2586,2.2784,2.2788,2.2792,2.2813,2.282,2.2826,0,0,0,0,0,2.2207,2.2267,2.2266,2.2282,2.2372,2.2438,2.245,2.2466,2.2446,2.2476,2.2502,2.2498,2.2627,2.2598,2.2614,2.2651,2.2782,2.2787,2.2792,2.281,2.2819,2.2826,0,0,0,0,0,0,2.2222,2.2274,2.2273,2.2351,2.239,2.2437,2.2476,2.2475,2.2521,2.2517,2.2536,2.2547,2.2618,2.2642,2.2609,2.2728,2.2702,2.2711,2.271,2.2718,2.2725,2.2717,2.2591,0,0,0,0,0,2.2234,2.2283,2.2327,2.2392,2.2411,2.244,2.247,2.2479,2.252,2.2536,2.2567,2.2608,2.2657,2.269,2.2738,2.2817,2.2827,2.285,2.2857,2.2862,2.2869,2.291,2.292,2.2812,2.2811,2.2811,0,0,2.226,2.2295,2.2325,2.2395,2.2427,2.2476,2.2454,2.2509,2.2545,2.2545,2.2613,2.2637,2.2683,2.2757,2.2792,2.278,2.2901,2.2869,2.2873,2.2877,2.2916,2.2926,2.2935,2.2815,2.2814,2.2814,0,0,2.2333,2.2365,2.2421,2.2453,2.25,2.2518,2.2532,2.2579,2.2595,2.2663,2.2663,2.2707,2.2793,2.2825,2.2852,2.2935,2.2932,2.2951,2.2985,2.3025,2.3034,2.3041,2.3068,2.3078,2.2957,2.2958,2.2958,0,2.2359,2.2434,2.245,2.2504,2.2534,2.2535,2.2592,2.2622,2.2683,2.2703,2.2689,2.2794,2.2826,2.2906,2.2926,2.295,2.2964,2.2944,2.3031,2.3039,2.3046,2.3072,2.3083,2.2959,2.2959,2.2959,2.2959,0,2.2463,2.2515,2.2555,2.2612,2.2647,2.2702,2.2726,2.2759,2.2765,2.2785,2.2853,2.2891,2.2945,2.2966,2.2973,2.3047,2.3037,2.3027,2.3001,2.3058,2.3083,2.3093,2.2962,2.2961,2.2961,2.296,0,0,2.2547,2.2612,2.2626,2.2651,2.2702,2.2743,2.2797,2.285,2.2877,2.2919,2.2964,2.3035,2.3025,2.3057,2.3067,2.3102,2.3162,2.3087,2.3089,2.3098,2.3243,2.3249,2.3261,2.3161,2.3163,2.3165,2.3239,0,2.2623,2.2719,2.2735,2.2819,2.2866,2.2867,2.2914,2.2951,2.2971,2.3013,2.3036,2.3085,2.3069,2.3088,2.3123,2.3147,2.3191,2.3143,2.3202,2.3204,2.3188,2.3274,2.3281,2.3349,2.3249,2.325,2.3252,0,2.2724,2.2767,2.2856,2.2899,2.2919,2.2961,2.3009,2.3051,2.3091,2.3103,2.3137,2.3143,2.3199,2.3171,2.3247,2.3213,2.3239,2.3254,2.3257,2.3262,2.323,2.3278,2.3371,2.338,2.3268,2.3266,2.3265,0,2.2773,2.2854,2.2916,2.2938,2.2991,2.302,2.3043,2.3082,2.3112,2.3154,2.3173,2.3222,2.3248,2.3285,2.3304,2.3282,2.3378,2.3352,2.3388,2.3387,2.3406,2.3404,2.3502,2.3426,2.3426,2.3426,2.3426,0,2.2855,2.2908,2.2939,2.2977,2.3036,2.3054,2.3112,2.3135,2.3169,2.3211,2.3216,2.3255,2.3278,2.3321,2.3335,2.3394,2.3407,2.3417,2.342,2.3416,2.3414,2.3431,2.3426,2.3429,2.3428,2.3428,2.3427,0,2.2919,2.2942,2.301,2.3054,2.3066,2.3107,2.3145,2.3181,2.3201,2.3254,2.3267,2.3298,2.3348,2.337,2.3433,2.3443,2.3509,2.351,2.3495,2.3496,2.3529,2.3525,2.3639,2.3654,2.3571,2.3571,2.3572,0,2.2969,2.301,2.3057,2.3085,2.3109,2.3155,2.3185,2.3204,2.3235,2.3283,2.3314,2.3364,2.3404,2.3484,2.3512,2.3559,2.356,2.3596,2.3567,2.356,2.3557,2.3553,2.3557,2.3601,2.3602,2.3603,2.3603,0,2.3053,2.3062,2.3105,2.3151,2.3187,2.3225,2.3262,2.3284,2.3308,2.3343,2.3394,2.3425,2.3488,2.3537,2.3585,2.3609,2.361,2.3612,2.3623,2.3617,2.3606,2.361,2.3507,2.3609,2.3609,2.3608,2.3608,2.3608,2.311,2.3145,2.3184,2.3231,2.326,2.3294,2.333,2.3354,2.3396,2.3448,2.3457,2.351,2.3548,2.3614,2.3639,2.3681,2.3672,2.3687,2.3691,2.3694,2.3694,2.3601,2.369,2.369,2.369,2.369,2.3689,0,2.3192,2.3217,2.326,2.3311,2.3347,2.3345,2.3385,2.3416,2.3463,2.3498,2.3538,2.3595,2.3643,2.3674,2.3721,2.3748,2.375,2.376,2.3757,2.3762,2.3701,2.3686,2.3758,2.3758,2.3758,2.3758,2.3758,2.3758,2.3239,2.3298,2.3311,2.3384,2.3409,2.3461,2.3483,2.3514,2.3542,2.3606,2.3645,2.3665,2.3698,2.3748,2.379,2.3798,2.3814,2.3825,2.3832,2.3774,2.3767,2.376,2.3746,2.3829,2.3829,2.3889,2.389,2.389]},{"header":{"parameterUnit":"m.s-1","parameterCategory":1,"la1":30.2991,"la2":30.254,"lo1":-89.0895,"lo2":-89.0444,"dy":0.0017,"dx":0.0017,"nx":28,"ny":28,"refTime":"2025-08-23T03:00:00:Z","depth":0,"parameterNumber":3,"parameterNumberName":"V-component_of_WINDS"},"data":[0,0,0,0,0,0,0,0,0,0,0,0,0,0,0,0,0,0,0,0,0,0,0,0,0,0,0,0,0,0,0,0,0,0,0,0,0,0,0,0,0,0,0,0,0,0,0,0,0,0,0,0,0,0,0,0,0,0,3.4551,3.4551,0,3.4569,3.4569,3.4569,3.4542,3.4541,3.454,3.4539,3.4556,3.4557,3.4558,0,0,0,0,0,0,0,0,0,0,0,0,0,3.4489,3.449,3.4551,3.4551,3.4551,3.4569,3.4569,3.4569,3.4542,3.4541,3.454,3.4539,3.4555,3.4557,3.4559,0,0,0,0,0,0,0,0,0,0,0,0,0,3.4512,3.4491,3.4551,3.454,3.4539,3.4569,3.4569,3.457,3.4542,3.4541,3.454,3.4538,3.4555,3.4557,3.4559,3.4599,0,0,3.4565,3.4566,0,0,0,0,0,0,0,0,3.4511,3.4515,3.4541,3.4541,3.454,3.4552,3.4553,3.4579,3.4543,3.4541,3.4539,3.4538,3.4556,3.4557,3.4564,3.46,3.4601,3.4565,3.4566,3.4567,3.4568,0,0,0,0,0,0,0,3.451,3.4514,3.4558,3.4542,3.4541,3.4533,3.4535,3.4558,3.4556,3.4541,3.4539,3.4542,3.4555,3.4562,3.4564,3.4601,3.4565,3.4567,3.4568,3.4569,3.4668,3.467,0,0,0,0,0,0,3.451,3.4513,3.4557,3.4559,3.4522,3.4535,3.4537,3.4549,3.4556,3.4555,3.4543,3.4541,3.4559,3.4562,3.4564,3.461,3.4567,3.4569,3.457,3.4667,3.4669,3.467,0,0,0,0,0,0,3.4508,3.4514,3.4557,3.4535,3.454,3.4538,3.4552,3.4551,3.4558,3.4557,3.4556,3.4551,3.4558,3.4562,3.459,3.4611,3.457,3.4572,3.4665,3.4668,3.467,3.4704,0,0,0,0,0,0,3.4507,3.4514,3.453,3.4536,3.4541,3.4584,3.4553,3.4552,3.4561,3.4558,3.4564,3.4564,3.4557,3.4588,3.4592,3.4613,3.4573,3.4663,3.4666,3.4669,3.4701,3.4707,3.4712,0,0,0,0,0,3.4505,3.4539,3.4531,3.4537,3.4562,3.4585,3.4588,3.458,3.4563,3.4579,3.4578,3.4564,3.4608,3.4591,3.4596,3.4617,3.4662,3.4665,3.4669,3.4698,3.4706,3.4712,0,0,0,0,0,0,3.4536,3.454,3.4531,3.4569,3.4577,3.458,3.46,3.4589,3.4601,3.4598,3.4587,3.4588,3.4619,3.4621,3.4602,3.4655,3.4632,3.4636,3.4653,3.466,3.4665,3.4663,3.4575,0,0,0,0,0,3.4548,3.4567,3.4569,3.4602,3.4606,3.4602,3.4612,3.4605,3.4613,3.4616,3.4617,3.4625,3.464,3.465,3.4664,3.4701,3.4701,3.4718,3.4724,3.4728,3.4732,3.4749,3.4756,3.4681,3.4681,3.4681,0,0,3.4572,3.4576,3.4589,3.4608,3.4614,3.4632,3.4606,3.4627,3.464,3.4619,3.4646,3.4647,3.4654,3.4686,3.4701,3.4689,3.4752,3.4732,3.4736,3.4737,3.4753,3.476,3.4766,3.4683,3.4683,3.4683,0,0,3.4624,3.463,3.4657,3.4662,3.4671,3.4668,3.4674,3.4679,3.4679,3.4705,3.4689,3.4704,3.4731,3.4736,3.4742,3.4794,3.478,3.4799,3.4827,3.4844,3.485,3.4855,3.4872,3.4878,3.4802,3.4803,3.4803,0,3.4652,3.4681,3.4672,3.4694,3.4702,3.4684,3.4709,3.4715,3.4727,3.4732,3.4719,3.4751,3.4755,3.4787,3.4799,3.4806,3.4811,3.4797,3.485,3.4855,3.486,3.4875,3.4882,3.4805,3.4804,3.4804,3.4804,0,3.4713,3.4733,3.4753,3.4765,3.4776,3.48,3.4793,3.4804,3.4796,3.4794,3.482,3.4823,3.4837,3.4844,3.4837,3.4874,3.4866,3.4852,3.4828,3.4869,3.4883,3.4889,3.4808,3.4807,3.4806,3.4806,0,0,3.4787,3.4792,3.48,3.4804,3.481,3.4825,3.4847,3.486,3.4868,3.4877,3.4894,3.4916,3.4902,3.4909,3.4902,3.4917,3.4954,3.49,3.49,3.4908,3.4993,3.5003,3.501,3.4946,3.4947,3.4948,3.4992,0,3.4837,3.4876,3.4867,3.4904,3.4921,3.4902,3.4921,3.4926,3.4924,3.4937,3.4935,3.495,3.4932,3.4935,3.4949,3.4947,3.4971,3.4944,3.496,3.496,3.4957,3.5018,3.5029,3.507,3.4998,3.4999,3.5,0,3.4902,3.4912,3.495,3.4951,3.4958,3.4975,3.4985,3.4998,3.5003,3.5,3.5007,3.4996,3.5016,3.4993,3.5019,3.5,3.5006,3.5006,3.5007,3.5008,3.4982,3.5018,3.5084,3.5089,3.5009,3.5008,3.5007,0,3.4948,3.4972,3.4997,3.5001,3.5004,3.5016,3.5018,3.5021,3.5029,3.5037,3.5042,3.5053,3.5058,3.5066,3.5058,3.5042,3.5085,3.5061,3.5081,3.5082,3.509,3.509,3.5156,3.5097,3.5097,3.5097,3.5097,0,3.5004,3.5028,3.5018,3.5033,3.5058,3.5048,3.5073,3.5072,3.5075,3.5089,3.5074,3.5087,3.5076,3.5088,3.5082,3.5103,3.5107,3.5104,3.5101,3.5104,3.5104,3.5107,3.5103,3.5098,3.5098,3.5098,3.5097,0,3.5061,3.5055,3.5081,3.5081,3.5082,3.51,3.5099,3.5113,3.5109,3.5127,3.513,3.5125,3.5138,3.513,3.5144,3.514,3.5167,3.5161,3.5165,3.5163,3.5183,3.518,3.5252,3.526,3.5197,3.5198,3.5199,0,3.5096,3.5114,3.5115,3.5123,3.5126,3.514,3.5147,3.5137,3.5144,3.515,3.5162,3.5174,3.5183,3.5204,3.52,3.521,3.5204,3.5228,3.5205,3.5207,3.5202,3.52,3.5201,3.5233,3.5233,3.5234,3.5234,0,3.5159,3.5154,3.5166,3.5175,3.5184,3.5191,3.5197,3.5204,3.5194,3.5203,3.5216,3.5223,3.5236,3.5247,3.5255,3.5255,3.5243,3.5242,3.5247,3.5249,3.5249,3.5247,3.5176,3.524,3.5239,3.5239,3.5239,3.5238,3.5204,3.5218,3.522,3.5232,3.5235,3.5241,3.5253,3.525,3.5261,3.527,3.5264,3.5278,3.528,3.529,3.5292,3.5302,3.5292,3.53,3.5302,3.5303,3.5305,3.5249,3.5304,3.5304,3.5304,3.5304,3.5303,0,3.5264,3.5264,3.5276,3.5284,3.5292,3.528,3.5285,3.5293,3.5306,3.531,3.5318,3.5332,3.5342,3.5339,3.5347,3.5356,3.5351,3.5359,3.5357,3.5357,3.5314,3.5308,3.5363,3.5363,3.5363,3.5363,3.5363,3.5363,3.5296,3.5318,3.5314,3.5336,3.5336,3.535,3.5353,3.5357,3.536,3.5375,3.5384,3.5382,3.5382,3.539,3.5398,3.5397,3.54,3.541,3.5407,3.5367,3.5361,3.5355,3.5349,3.5412,3.5412,3.5449,3.5449,3.5449]}]]